Regional Weather Roundup
Issued by NWS

Home | Current Version | Previous Version | Text Only | Print | Product List | Glossary On
Versions: 1 2 3 4 5 6 7 8 9 10 11 12 13 14 15 16 17 18 19 20 21 22 23 24 25 26 27 28 29 30 31 32 33 34 35 36 37 38 39 40 41 42 43 44 45 46 47 48 49 50
000
ASUS43 KMPX 231810
RWRMN
WEATHER ROUNDUP FOR MINNESOTA
NATIONAL WEATHER SERVICE TWIN CITIES/CHANHASSEN MN
1200 PM CST THU NOV 23 2017


NOTE: "FAIR" INDICATES FEW OR NO CLOUDS BELOW 12,000 FEET WITH NO
SIGNIFICANT WEATHER AND/OR OBSTRUCTIONS TO VISIBILITY. N/A MEANS
CURRENT SKY AND/OR WEATHER CONDITIONS ARE NOT AVAILABLE.

MNZ060>063-068>070-231900-
   Twin Cities Metro

CITY           SKY/WX    TMP DP  RH WIND       PRES   REMARKS
TWIN CITIES    SUNNY     38  22  52 SW6       29.91F
6HR MIN TEMP:  23; 6HR MAX TEMP:  38;

ST PAUL        SUNNY     38  20  48 E5        29.92F
CRYSTAL        SUNNY     39  18  42 VRB3      29.89F
BLAINE         SUNNY     39  19  45 S7        29.90F
LAKEVILLE      SUNNY     39  21  48 CALM      29.91F
EDEN PRAIRIE   SUNNY     38  20  48 SW6       29.90F
6HR MIN TEMP:  22; 6HR MAX TEMP:  38;

SOUTH ST PAUL  SUNNY     40  20  44 SW5       29.91F
LAKE ELMO      FAIR      39  23  52 S5        29.91F
$$
MNZ001>005-007-008-013>017-022>024-027-028-231900-
   Northwest Minnesota

CITY           SKY/WX    TMP DP  RH WIND       PRES   REMARKS
BEMIDJI        CLOUDY    25  24  97 SW6       29.79F FOG     WCI  18
HALLOCK        CLOUDY    30  28  93 S13       29.72F FOG     WCI  20
ROSEAU         CLOUDY    27  21  80 S5        29.75F WCI  21
WARROAD        CLOUDY    27  21  80 S5        29.77F WCI  21
THIEF RVR FALL MIX PCPN  28  28 100 S10       29.75F VSB 1/2 WCI  19
CROOKSTON      CLOUDY    32  28  86 S14       29.76F WCI  22
FOSSTON        CLOUDY    27  27 100 S9        29.79F FOG     WCI  17
DETROIT LAKES  CLOUDY    30  30 100 SE8       29.80F FOG     WCI  23
MOORHEAD       PTSUNNY   30  27  86 SE15      29.79F WCI  19
PARK RAPIDS    SUNNY     32  26  78 VRB3      29.81F
MAHNOMEN       CLOUDY    28  27  97 S10       29.79F WCI  19
$$
MNZ006-009>011-018-025>026-231900-
   North Central Minnesota

CITY           SKY/WX    TMP DP  RH WIND       PRES   REMARKS
BAUDETTE       CLOUDY    26  21  81 E6        29.77F WCI  19
FLAG ISLAND    PTSUNNY   25  19  80 S9        29.75F WCI  15
INTL FALLS     MOSUNNY   26  19  74 W6        29.78F WCI  19
6HR MIN TEMP:  19; 6HR MAX TEMP:  26;

WASKISH        CLOUDY    25  23  93 SW8       29.79F WCI  16
BIG FORK       SUNNY     32  23  69 S3        29.79F
LONGVILLE      SUNNY     34  19  55 SW6       29.81F WCI  29
GRAND RAPIDS   SUNNY     31  21  66 SW6       29.82F WCI  25
CRANE LAKE     PTSUNNY   27  19  74 S3        29.81F
ORR            CLOUDY    28  18  64 W3        29.77F
COOK           CLOUDY    28  19  69 SW5       29.80F WCI  23
WALKER         FAIR      31  24  74 SW7       29.80F WCI  24
$$
MNZ012-019>021-037-231900-
   Northeast Minnesota

CITY           SKY/WX    TMP DP  RH WIND       PRES   REMARKS
DULUTH         MOSUNNY   31  24  75 W13       29.82F WCI  21
6HR MIN TEMP:  16; 6HR MAX TEMP:  31;

ELY            CLOUDY    27  19  74 W6        29.79F WCI  20
HIBBING        SUNNY     30  20  66 SW6       29.80F WCI  24
EVELETH        MOSUNNY   29  18  64 SW6       29.81F WCI  23
DULUTH HARBOR  SUNNY     34  27  75 SW10      29.87F WCI  26
TWO HARBORS    SUNNY     39  27  60 SW7       29.82F
SILVER BAY     SUNNY     36  25  64 SW3       29.79F
GRAND MARAIS     N/A     32  23  69 SW10      29.82F WCI  24
G MARAIS ARPRT CLOUDY    25  16  68 W7        29.76F WCI  17
$$
MNZ029>031-032-039>041-046>048-054>057-064-231900-
   West Central Minnesota

CITY           SKY/WX    TMP DP  RH WIND       PRES   REMARKS
FERGUS FALLS   SUNNY     36  21  55 SE10      29.83F
WHEATON        SUNNY     43  25  49 SE13      29.82F
MORRIS         SUNNY     39  25  56 S12       29.83F
ALEXANDRIA     SUNNY     38  23  55 S9        29.85F
ELBOW LAKE     FAIR      37  24  58 SE10      29.82F HAZE
WADENA         SUNNY     36  23  60 SW8       29.82F
GLENWOOD       SUNNY     39  25  56 S8        29.86S
APPLETON       SUNNY     43  23  45 S9        29.85F
BENSON         SUNNY     39  21  48 SW9       29.87F
ORTONVILLE     CLOUDY    39  27  60 N8        29.82F
MADISON        CLOUDY    46  30  53 S9        29.85F
WILLMAR        FAIR      39  25  56 SW8       29.89F
$$
MNZ033>034-036-042>043-049>051-058-059-231900-
   Central Minnesota

CITY           SKY/WX    TMP DP  RH WIND       PRES   REMARKS
ST CLOUD       SUNNY     38  22  52 S7        29.87F
6HR MIN TEMP:  16; 6HR MAX TEMP:  38;

SAUK CENTRE    FAIR      38  24  56 S5        29.86F
PAYNESVILLE    SUNNY     39  25  56 SW8       29.87F
AITKIN         SUNNY     32  19  59 S6        29.82F WCI  26
PINE RIVER     SUNNY     32  21  64 S5        29.86F WCI  27
BRAINERD       SUNNY     35  22  58 SW6       29.84F WCI  30
STAPLES        SUNNY     37  23  56 W8        29.83F
LITTLE FALLS   SUNNY     36  14  41 S7        29.86F
LITCHFIELD     SUNNY     41  25  52 S3        29.88F
BUFFALO        SUNNY     38  21  50 S5        29.90F
MAPLE LAKE     SUNNY     40  24  52 S6        29.89F
HUTCHINSON     SUNNY     40  24  53 S5        29.90F
$$
MNZ037-044-045-052-053-231900-
   East Central Minnesota

CITY           SKY/WX    TMP DP  RH WIND       PRES   REMARKS
PRINCETON      SUNNY     39  21  48 S6        29.88F
MORA           SUNNY     34  21  60 S3        29.89F
CAMBRIDGE      SUNNY     39  23  52 S5        29.89F
RUSH CITY      SUNNY     34  23  64 S6        29.89F WCI  29
MOOSE LAKE     SUNNY     34  23  64 S7        29.84F WCI  28
HINCKLEY       FAIR      36  25  64 S8        29.88F
CLOQUET        SUNNY     34  21  60 SW7       29.84F WCI  28
MCGREGOR       SUNNY     34  23  64 SW3       29.84F
$$
MNZ071>073-080-081-089-090-097-098-231900-
   Southwest Minnesota

CITY           SKY/WX    TMP DP  RH WIND       PRES   REMARKS
MONTEVIDEO     SUNNY     43  25  49 S8        29.87F
GRANITE FALLS  SUNNY     43  27  52 SE8       29.89F
CANBY          MOSUNNY   49  31  50 SW10      29.86F
MARSHALL       CLOUDY    48  32  53 SW10      29.87F
REDWOOD FALLS  SUNNY     42  23  46 S8        29.90F
OLIVIA         SUNNY     41  25  52 SW12      29.89F
PIPESTONE      SUNNY     45  28  53 SW12      29.90F
WINDOM         CLOUDY    45  25  45 SW8       29.90F
WORTHINGTON    CLOUDY    47  30  51 SW14      29.91F
JACKSON        SUNNY     43  27  52 CALM      29.92F
SLAYTON        CLOUDY    47  31  55 SW13      29.91F
$$
MNZ065>067-074>077-082>085-091>093-231900-
   South Central Minnesota

CITY           SKY/WX    TMP DP  RH WIND       PRES   REMARKS
MANKATO        SUNNY     38  21  50 VRB3      29.91F
NEW ULM        SUNNY     39  21  48 CALM      29.91F
ST JAMES       SUNNY     43  25  49 SW6       29.92F
FAIRMONT       SUNNY     42  25  50 SW5       29.93F
GLENCOE        SUNNY     40  23  51 SW3       29.90F
FARIBAULT      SUNNY     39  21  48 S6        29.91F
OWATONNA       SUNNY     41  23  48 W3        29.91F
WASECA         SUNNY     39  23  52 SW6       29.92F
ALBERT LEA     SUNNY     41  19  42 W6        29.91F
$$
MNZ078>079-086>088-094>096-231900-
   Southeast Minnesota

CITY           SKY/WX    TMP DP  RH WIND       PRES   REMARKS
ROCHESTER      SUNNY     41  22  46 NW7       29.92F
6HR MIN TEMP:  22; 6HR MAX TEMP:  41;

RED WING       SUNNY     37  16  41 SW3       29.91F
STANTON        SUNNY     40  21  47 CALM      29.90F
DODGE CENTER   SUNNY     39  19  45 W6        29.91F
WINONA         SUNNY     37  23  56 NE5       29.94F
AUSTIN         SUNNY     41  21  45 W5        29.92F
PRESTON        SUNNY     39  21  48 W7        29.92F
$$
ABBREVIATIONS USED IN REMARKS
   TC - TEMPERATURES IN CELSIUS
  WCI - WIND CHILL INDEX
   HX - HEAT INDEX
  VSB - VISIBILITY
$$




USA.gov is the U.S. government's official web portal to all federal, state and local government web resources and services.